Theta_e
281 281 281 281 281 281 281 281 281 281 281 281 281 281 281 281 281 281 281 281 281 281 281 281 281 281 281 281 281 281 280 280 280 280 280 280 280 280 279 279 279 279 278 278 278 278 278 278 278 278 278 278 278 278 278 278 278 278 278 278 278 278
281 281 281 280 281 281 281 281 281 281 281 281 281 281 281 281 281 281 280 281 281 280 280 280 281 281 280 280 280 280 280 280 280 280 280 279 279 279 279 279 278 278 278 278 278 278 278 278 278 278 278 278 277 277 277 277 277 277 277 277 278 278
281 281 281 281 281 281 281 281 281 281 280 280 281 280 280 280 280 280 280 280 280 280 279 279 279 279 280 280 280 279 279 279 279 279 279 279 279 279 279 278 278 278 278 277 277 277 277 277 277 277 277 277 276 277 277 277 277 276 276 277 276 277
281 281 281 281 281 281 280 281 280 280 280 281 280 280 280 280 280 280 280 280 280 279 279 279 279 278 278 278 278 279 279 279 279 279 279 279 279 278 278 278 278 278 277 277 276 276 276 276 276 276 276 276 276 276 276 276 276 276 275 276 275 276
281 281 281 281 281 281 281 280 280 280 280 280 280 280 280 280 280 280 280 279 279 279 278 278 278 278 278 278 278 278 278 278 278 278 278 278 278 278 277 277 277 276 276 275 275 275 275 275 275 275 275 275 275 275 275 275 275 275 275 275 275 275
282 281 281 281 281 281 280 280 280 280 280 280 280 279 280 279 279 279 279 279 278 278 278 278 278 278 278 278 278 277 277 277 277 277 277 277 277 276 276 276 275 275 275 274 274 274 274 274 274 274 274 274 274 274 274 274 274 274 274 274 275 275
281 281 281 281 281 281 280 280 280 280 280 280 279 280 279 279 279 279 279 278 278 278 278 278 278 278 277 277 277 277 277 277 276 276 276 275 275 275 274 274 274 273 273 273 273 273 273 273 273 273 273 273 274 273 273 273 274 274 274 274 275 275
282 281 281 281 281 281 280 280 280 279 280 279 279 279 279 279 279 279 278 278 278 277 277 277 277 277 277 277 276 276 276 276 275 274 274 274 273 273 273 272 272 272 272 272 272 272 272 272 272 272 272 272 272 272 273 273 274 274 274 274 274 274
282 282 281 282 282 281 281 280 279 279 279 279 279 279 279 278 278 278 278 278 278 277 277 277 277 277 277 276 276 276 275 274 273 273 272 273 272 271 271 271 271 271 271 271 271 271 271 271 271 271 271 271 271 272 273 273 273 273 274 274 274 274
282 282 282 281 281 281 281 280 280 279 279 279 279 279 279 278 278 278 277 277 277 277 277 277 277 276 276 276 275 274 273 272 272 271 271 271 270 270 270 270 269 270 270 270 269 270 270 269 270 270 270 270 271 273 273 273 273 273 273 273 273 273
282 282 282 282 281 281 281 280 280 280 279 280 280 279 279 278 278 277 277 277 277 277 277 276 276 275 275 274 273 272 271 271 270 270 270 269 269 269 269 269 269 268 268 268 268 268 268 268 268 269 269 271 273 274 273 273 273 273 273 273 273 273
282 282 282 281 281 281 281 281 281 280 280 280 280 279 279 278 278 277 276 277 276 276 276 275 275 274 273 272 271 270 269 269 269 268 268 268 267 267 267 267 268 267 267 267 267 267 267 267 268 269 272 275 274 274 274 273 273 273 273 272 272 272
281 281 281 281 282 282 282 282 282 282 281 281 280 279 279 278 277 277 276 276 275 275 274 274 273 272 271 270 269 268 268 268 267 267 266 266 266 266 266 266 266 266 266 266 266 265 266 266 267 270 273 274 275 274 274 273 273 273 272 272 271 271
280 281 281 282 282 282 282 282 282 281 281 281 280 279 278 277 277 277 276 276 274 274 274 272 271 270 269 268 267 267 266 266 265 265 265 264 264 265 265 265 265 265 265 265 265 265 265 265 267 271 272 274 275 275 274 274 273 272 272 271 271 271
281 281 281 282 282 282 282 282 281 281 282 281 280 278 276 277 277 276 275 274 274 273 272 270 269 268 267 266 265 265 264 264 264 263 263 263 264 264 264 264 264 264 264 264 263 263 264 264 267 270 272 273 275 275 275 273 273 272 271 271 270 270
280 281 281 282 282 283 283 282 282 282 281 280 278 277 276 276 275 275 274 273 272 271 269 268 267 266 266 265 264 264 263 263 263 263 263 263 263 263 263 263 263 263 263 263 263 263 263 263 266 270 272 273 274 275 275 273 272 271 270 269 269 269
280 280 279 280 281 281 280 280 280 278 277 277 276 276 275 275 274 273 273 271 270 269 267 267 266 265 264 264 263 263 263 262 262 262 262 262 262 262 262 262 261 261 261 261 262 262 262 262 267 270 271 272 273 275 275 272 270 269 269 269 269 269
279 279 280 280 279 279 279 279 278 277 276 275 276 274 274 273 273 272 271 270 268 267 267 266 265 264 263 263 262 261 263 262 262 261 262 261 261 261 262 261 261 261 260 261 261 260 261 262 267 269 270 272 273 274 272 270 269 268 268 268 269 269
279 279 279 278 278 278 278 277 276 275 273 273 272 272 272 272 271 271 270 269 267 266 266 266 264 263 262 262 261 260 261 262 261 260 261 260 261 261 260 260 260 260 260 260 260 260 260 261 264 268 270 271 273 272 270 270 269 268 268 268 269 269
278 278 278 277 277 277 276 275 274 273 273 271 270 270 270 271 271 270 269 268 266 266 265 265 263 262 262 260 260 260 262 261 260 260 260 260 259 259 259 259 259 259 259 259 259 259 259 260 263 267 269 271 272 272 270 269 268 268 268 268 269 269
277 277 276 276 276 274 273 273 273 273 272 271 270 270 270 270 271 269 268 267 265 265 263 263 262 262 260 260 261 259 259 259 259 259 259 258 258 258 258 258 258 258 258 258 259 261 261 260 262 266 268 270 271 271 270 270 269 268 268 268 268 269
274 274 274 275 276 272 271 272 273 272 272 270 269 269 270 271 271 269 267 266 264 263 262 262 261 260 259 260 259 258 259 259 257 257 258 257 257 257 258 257 257 257 257 258 258 259 260 259 260 262 268 269 271 272 270 270 269 268 268 269 269 268
277 277 276 276 273 271 270 271 272 271 271 269 269 269 272 270 268 266 265 264 263 262 261 260 260 259 258 259 258 259 258 258 259 258 256 256 256 256 256 256 256 256 257 257 258 258 259 259 260 261 267 269 271 272 272 270 270 269 269 269 269 270
275 274 273 272 271 270 270 271 272 272 269 268 269 271 270 266 266 265 264 263 262 260 259 258 258 258 257 256 256 256 256 257 256 256 256 256 256 255 255 256 256 257 257 258 258 258 259 260 262 262 266 269 271 272 273 271 271 272 271 271 270 270
274 274 275 273 270 270 270 270 271 270 269 269 271 269 266 265 264 264 263 262 260 259 257 257 256 256 255 254 256 255 255 255 255 254 254 254 254 254 254 255 256 256 257 257 258 259 259 260 260 265 265 269 271 273 274 274 273 275 273 271 270 271
275 275 273 271 270 269 270 270 272 270 269 271 269 265 264 263 263 262 261 260 259 257 256 256 255 255 255 255 255 254 254 254 254 253 253 254 254 255 255 256 256 256 256 256 258 258 260 261 262 264 268 269 272 273 274 274 275 275 273 273 272 272
275 274 272 270 268 268 268 270 272 270 269 270 265 265 263 262 261 260 260 258 257 256 255 254 254 253 253 252 254 254 255 254 252 254 252 254 254 255 254 255 255 255 255 256 257 259 261 263 265 266 268 271 271 273 274 274 275 276 276 273 273 273
271 270 271 269 267 267 267 268 271 270 272 267 264 264 262 261 260 259 259 256 256 255 254 254 253 252 253 253 254 254 255 255 255 255 254 254 255 254 254 255 255 255 255 256 258 260 262 264 265 266 267 269 270 271 272 274 275 275 275 275 274 275
272 271 271 270 268 266 266 266 268 271 266 263 264 263 261 260 260 260 258 257 256 254 253 255 255 254 253 252 253 254 254 255 254 254 255 255 254 254 254 255 255 255 256 257 259 262 263 264 265 266 267 268 269 269 270 272 272 274 275 272 271 272
272 272 271 271 271 267 266 266 266 266 263 263 262 261 260 260 260 260 258 257 256 255 254 255 256 256 254 254 253 254 253 254 254 254 255 255 255 254 255 255 256 256 257 259 261 262 263 263 265 267 267 268 269 270 272 272 272 272 271 270 270 270
271 272 272 272 272 267 265 265 265 263 262 263 261 260 260 260 259 258 257 255 254 255 254 254 255 255 255 254 252 253 255 255 254 255 255 255 256 256 257 257 258 259 259 260 262 262 262 264 266 267 271 271 273 272 271 272 271 271 270 270 272 268
272 272 272 272 270 267 265 264 264 261 262 261 260 260 261 260 258 257 256 255 254 254 254 254 253 252 254 253 253 251 252 257 262 259 257 257 261 265 267 265 261 261 261 261 263 264 265 267 268 272 273 273 273 274 275 274 274 273 271 271 271 265
270 270 271 271 269 266 265 265 263 261 260 260 259 260 261 259 259 258 257 255 255 255 255 254 253 253 252 252 253 252 254 254 256 263 266 267 267 268 269 270 271 272 272 270 269 270 272 272 272 272 272 273 273 274 274 273 273 272 271 270 265 260
269 269 270 271 268 267 265 264 263 261 260 259 259 259 259 259 260 259 258 256 255 256 256 255 255 254 253 253 254 253 253 253 253 255 262 264 265 267 268 269 270 271 271 271 271 270 268 269 271 271 272 272 273 273 272 272 271 270 269 269 266 258
271 271 270 269 267 266 264 264 262 260 259 258 258 258 258 257 258 259 257 256 255 255 256 255 254 254 254 253 253 252 252 253 252 253 255 258 263 264 266 268 269 269 270 270 270 270 270 270 270 271 271 272 272 272 271 271 269 268 267 266 259 256
270 269 268 266 265 265 263 263 261 259 258 257 257 257 257 257 257 257 256 255 255 255 255 255 255 254 254 254 254 253 254 254 254 253 253 253 254 257 260 264 265 266 267 267 267 268 269 269 270 270 271 272 271 270 270 268 263 265 265 263 258 256
267 265 264 264 262 261 261 261 259 257 256 256 256 256 256 255 256 254 255 256 255 255 255 255 256 255 254 253 253 253 254 254 254 254 254 253 253 253 254 255 257 260 263 263 264 266 268 268 269 269 270 271 269 268 268 265 257 256 256 257 256 256
263 261 259 259 259 259 260 259 255 256 255 255 255 256 255 255 255 255 255 255 256 255 255 255 254 255 254 254 253 253 253 253 254 254 254 254 254 254 253 254 255 256 259 263 264 266 266 267 268 268 269 269 267 267 264 256 255 255 255 255 256 255
Wind_Speed
7 7 7 6 5 5 5 5 5 5 5 5 8 10 9 9 7 7 6 7 6 7 7 8 7 7 7 7 7 6 6 6 4 4 4 4 3 3 4 4 5 5 5 5 5 5 6 5 5 5 5 5 5 5 5 5 5 5 5 4 5 5
8 8 8 8 8 7 6 6 5 7 6 7 6 6 6 7 7 7 8 6 7 7 7 6 7 7 7 6 6 5 6 5 4 4 5 5 4 5 5 5 5 5 6 5 5 5 5 6 6 6 6 6 5 6 6 6 6 6 6 6 4 4
8 8 7 6 5 5 6 6 8 7 6 7 7 10 8 8 7 7 8 7 7 8 8 8 7 8 6 7 6 6 5 5 5 5 4 3 5 4 5 5 5 5 5 6 6 6 7 7 7 6 6 6 6 6 6 6 6 7 7 7 7 6
8 7 5 6 6 6 7 7 6 7 8 8 8 7 8 9 8 8 8 7 7 8 8 7 6 7 7 7 6 7 5 5 4 4 5 6 4 4 4 4 3 3 4 4 5 5 5 5 5 6 5 6 6 6 5 6 7 7 7 7 8 8
8 9 9 9 9 8 8 8 8 8 8 8 8 8 9 8 9 8 7 7 7 8 7 7 7 6 7 8 6 7 6 5 5 4 4 3 3 3 3 3 3 3 3 3 4 4 4 5 5 5 5 6 6 7 6 6 7 7 8 8 8 8
8 9 9 9 9 9 10 8 7 7 8 8 8 9 9 8 8 7 7 7 7 7 7 7 6 7 7 8 6 6 5 4 3 3 3 3 2 3 3 2 2 2 3 3 3 4 4 4 5 5 5 6 6 6 7 7 7 7 7 8 9 9
11 11 10 10 10 9 8 8 9 9 9 9 9 8 9 8 7 8 7 8 8 6 7 7 7 8 7 6 5 5 4 4 3 3 3 2 2 2 2 2 2 2 3 3 4 4 4 5 5 5 5 5 5 6 7 7 7 7 8 8 8 8
10 10 11 10 10 10 9 9 9 9 9 9 8 9 8 8 7 7 8 7 8 7 7 7 7 7 7 6 5 5 4 3 3 3 2 2 2 2 2 2 3 3 3 3 3 4 4 4 5 5 6 6 6 6 7 7 7 8 8 8 8 8
13 13 11 11 10 9 9 10 10 10 9 9 8 8 8 8 7 7 7 7 8 7 7 7 7 7 6 5 5 4 4 3 3 2 2 2 2 2 1 2 2 2 3 3 3 4 4 5 5 5 6 6 6 7 7 7 8 8 7 7 8 8
10 11 12 11 10 9 9 9 10 11 11 11 9 8 8 7 7 7 7 7 7 7 7 7 7 7 6 5 5 4 4 3 2 2 2 2 2 2 2 2 3 2 3 3 3 4 4 4 5 5 5 6 6 7 7 7 9 9 8 9 8 8
12 13 12 12 10 11 11 10 9 8 8 8 9 8 9 8 8 7 7 7 7 7 7 7 6 5 6 6 5 4 3 2 2 1 1 2 1 2 2 3 3 3 3 3 3 4 4 4 4 4 5 7 8 9 9 9 9 10 11 10 9 9
11 10 10 10 12 12 11 11 10 11 11 10 8 8 8 8 8 8 7 8 7 7 7 7 7 6 6 5 5 4 2 1 1 0 1 1 1 2 2 2 2 2 3 3 3 3 3 4 3 7 12 11 9 10 8 9 9 9 10 10 10 10
7 7 10 12 13 13 13 13 12 11 10 9 9 9 8 8 8 8 8 8 7 8 8 7 7 7 6 5 4 2 1 1 1 1 1 0 1 1 2 2 2 3 3 3 3 4 3 4 5 12 13 13 14 10 9 9 10 10 10 10 10 11
10 11 13 14 15 14 13 11 10 9 11 10 10 8 8 8 8 9 8 7 8 8 8 7 7 7 6 5 3 2 2 1 2 2 1 0 1 1 1 2 2 2 2 3 3 3 4 5 9 13 13 13 13 12 10 9 9 9 9 9 10 10
12 12 12 10 11 12 12 11 9 11 11 10 9 7 8 9 9 8 8 7 8 7 7 7 6 5 5 3 3 2 3 3 3 2 1 0 1 1 1 1 2 2 2 3 4 4 5 5 10 13 14 13 14 14 12 8 8 9 9 9 10 10
7 8 10 10 11 12 10 10 12 11 8 8 7 10 9 9 8 8 8 8 8 8 8 8 6 5 5 4 4 3 3 3 3 2 1 0 1 1 1 1 2 2 3 4 4 5 5 7 10 14 14 14 14 14 13 9 9 9 9 10 10 9
7 6 7 9 10 7 7 7 6 5 6 8 9 8 9 8 8 7 8 8 7 7 6 7 5 5 5 5 4 4 3 3 3 2 1 0 1 2 2 2 3 3 3 4 4 5 5 6 13 14 15 14 15 15 13 7 8 8 8 9 9 10
11 11 11 7 6 7 7 8 7 8 7 6 9 8 8 8 7 8 8 8 8 8 8 6 6 5 5 5 4 4 3 3 2 1 0 0 1 1 1 2 2 3 4 4 5 5 6 6 13 14 14 15 15 16 9 7 8 8 9 9 10 10
9 8 5 6 7 8 8 6 7 7 7 7 7 8 7 7 7 9 9 8 9 9 8 8 6 6 6 5 5 4 4 3 1 0 0 0 2 2 2 2 3 3 4 4 4 6 6 7 10 14 15 16 17 13 8 8 7 8 10 11 11 10
3 4 6 7 7 6 5 7 8 8 8 8 7 7 8 7 9 9 8 9 8 8 8 6 6 7 6 5 5 5 3 2 0 1 1 1 1 3 2 3 3 2 3 4 5 4 7 6 10 15 16 16 16 14 10 8 9 8 9 11 10 10
6 5 6 6 7 6 7 8 9 9 9 8 9 8 8 9 9 10 11 10 9 8 6 6 6 6 6 6 5 5 4 2 1 1 1 1 1 3 2 3 3 3 2 3 4 8 9 8 9 14 16 17 16 12 9 8 7 8 11 10 12 12
8 5 6 8 9 8 9 9 9 8 9 9 8 8 9 11 11 9 7 8 9 8 6 6 6 6 6 6 5 4 3 2 1 2 1 1 1 2 2 3 3 5 3 2 4 5 6 8 7 10 17 16 16 16 10 9 8 10 12 11 10 10
8 10 12 9 8 9 9 9 8 8 7 8 9 10 13 8 8 9 9 9 8 7 6 5 6 7 5 5 5 4 2 2 2 1 1 2 1 2 3 4 4 4 4 2 4 4 5 5 8 9 16 16 16 16 14 9 9 9 9 8 8 7
6 4 2 4 9 9 9 9 10 8 9 7 11 13 6 8 9 9 9 8 7 7 6 6 4 5 5 5 5 5 3 2 2 1 1 1 1 3 5 4 3 4 4 2 3 3 5 7 12 9 13 16 16 16 17 11 10 11 11 11 11 13
8 9 10 7 9 9 9 10 10 9 8 11 14 7 8 8 9 9 8 8 8 7 7 6 6 5 5 4 5 5 3 2 2 2 1 1 2 3 5 5 4 4 5 3 2 2 4 5 7 14 12 15 16 17 16 18 15 19 12 12 12 10
10 10 7 7 8 8 9 12 11 10 11 15 6 9 7 8 7 8 8 7 7 7 6 6 5 6 5 6 5 4 4 3 2 2 2 2 2 3 4 3 3 3 4 5 4 2 4 5 6 10 14 13 16 16 18 18 19 19 13 11 11 12
12 10 8 8 9 9 10 10 12 12 14 9 9 10 11 10 9 9 8 8 7 7 6 5 6 6 6 4 6 5 4 4 3 3 3 3 2 2 4 4 2 3 4 5 6 5 5 5 5 6 9 16 15 17 18 19 20 20 20 14 9 10
6 6 8 8 8 9 8 10 10 14 15 7 9 10 10 11 11 10 10 8 8 8 7 7 6 5 5 5 4 4 4 4 4 3 2 3 4 3 4 4 3 3 4 5 5 6 6 6 6 6 6 8 11 13 17 20 19 20 21 19 15 21
8 9 9 11 9 10 9 10 11 11 5 11 10 10 10 11 11 10 9 10 8 7 7 7 6 5 4 3 3 3 3 4 3 3 3 4 4 3 4 4 4 4 4 5 6 6 7 6 6 7 6 7 7 8 9 9 10 15 16 12 11 14
10 11 10 12 11 11 10 10 12 9 7 8 10 10 11 11 12 12 11 10 8 8 8 7 5 6 5 5 4 4 4 3 3 5 6 6 5 4 5 4 5 5 5 5 6 6 6 7 7 6 7 7 7 7 8 9 7 8 10 10 10 11
12 13 12 14 9 9 9 11 10 7 9 10 10 12 13 12 10 8 8 7 7 7 6 6 6 5 5 4 3 4 4 4 4 6 5 5 4 5 6 6 7 7 6 6 6 7 7 6 5 6 10 10 14 12 10 8 8 9 8 11 18 11
12 12 13 13 7 9 11 11 9 8 8 8 10 11 13 11 9 8 8 8 7 6 6 5 5 4 4 4 4 3 4 7 11 8 6 6 10 15 17 14 9 8 7 8 9 9 8 6 6 13 16 16 16 17 17 15 16 16 13 16 15 9
11 10 11 12 7 9 10 10 10 9 9 10 10 11 10 10 9 8 7 7 7 7 6 5 5 4 4 3 3 2 3 5 6 10 14 14 13 13 15 16 19 19 18 12 7 8 16 16 16 15 15 15 16 16 15 15 14 15 15 15 8 6
10 12 15 12 9 10 10 10 9 11 9 9 9 9 10 10 10 10 8 7 5 6 6 4 4 4 4 3 2 2 2 1 5 10 6 6 9 11 13 15 17 16 15 17 15 10 3 9 13 14 14 15 15 13 13 13 13 13 13 12 10 4
12 12 11 7 8 8 9 10 9 9 9 9 8 8 9 9 8 7 6 6 6 5 6 5 5 4 4 4 3 3 2 2 2 3 10 9 6 8 12 16 16 14 12 10 9 10 11 11 12 13 13 14 13 11 11 12 12 12 10 9 5 2
7 8 7 6 8 9 7 9 8 9 9 9 8 8 8 7 7 6 6 7 7 7 6 6 5 5 4 4 4 4 4 3 4 3 3 5 11 9 4 2 6 8 10 10 11 12 12 12 12 12 13 12 10 10 10 10 7 7 5 7 3 3
7 6 6 7 6 6 7 8 5 6 7 8 9 9 8 7 7 5 5 8 6 6 6 5 5 6 5 5 5 5 5 5 3 3 3 4 3 5 8 8 4 5 8 8 10 13 13 11 11 12 12 10 8 9 9 8 5 4 2 2 0 2
6 5 4 4 5 6 7 5 5 7 8 8 8 9 8 7 7 6 5 5 6 5 4 4 5 5 6 5 5 5 4 5 5 4 4 4 4 5 5 8 8 6 7 13 14 12 10 11 12 11 10 6 8 8 8 4 3 3 3 4 2 2
Wind_Direction
181 186 193 191 184 166 153 137 134 130 126 127 130 136 141 144 140 128 119 118 121 127 127 126 120 115 107 101 102 99 97 100 101 101 106 104 79 70 56 48 45 40 32 34 25 22 22 17 14 10 8 7 7 5 2 358 358 352 347 345 344 331
188 185 183 182 179 171 164 150 141 148 149 141 134 121 130 136 140 139 134 141 135 133 130 118 114 108 107 110 113 102 96 99 95 88 76 63 53 50 45 41 36 28 24 20 18 12 14 10 6 6 4 0 7 356 353 350 349 345 341 335 336 330
186 185 184 180 175 159 151 159 163 162 152 152 162 156 160 158 157 149 149 147 146 140 131 128 122 113 109 104 97 95 91 82 69 65 73 70 49 40 38 35 28 20 16 9 9 9 1 1 356 356 354 352 348 346 339 337 340 336 331 329 325 327
184 182 176 173 165 166 169 175 160 159 169 172 170 172 170 162 166 165 157 161 146 136 130 122 117 104 94 93 89 79 77 66 60 55 50 52 37 45 35 34 22 15 8 5 359 358 353 349 347 343 345 341 336 334 334 329 331 324 320 321 317 323
183 180 181 180 179 174 177 174 174 173 175 175 185 177 185 181 173 166 158 150 145 136 126 113 103 105 101 87 74 68 59 58 58 50 68 64 47 34 44 25 24 11 3 2 355 352 349 346 343 340 337 330 329 326 324 324 322 319 317 317 314 316
172 175 185 182 180 183 185 181 176 175 179 187 181 190 187 186 175 166 155 148 135 128 118 116 116 95 84 76 71 74 69 73 74 62 64 62 48 51 30 35 23 16 5 3 359 350 345 345 339 336 330 324 323 318 316 316 313 308 306 305 307 312
186 191 187 185 187 186 180 178 181 181 188 188 186 194 191 182 173 162 157 145 141 140 121 113 103 96 92 94 93 95 89 80 76 63 68 56 51 49 53 27 20 21 10 7 359 351 353 347 338 331 325 320 316 312 311 310 308 305 304 303 303 305
188 190 190 189 190 183 179 182 185 189 190 192 188 187 186 189 172 167 153 155 140 134 124 119 111 111 112 112 106 103 96 80 69 58 36 61 35 55 34 33 15 15 8 357 360 352 347 340 331 323 318 316 317 312 307 306 305 305 304 303 303 304
198 195 191 192 186 183 182 182 188 192 190 193 194 195 186 178 170 166 161 154 140 137 137 135 128 121 118 116 112 104 89 73 63 46 40 34 48 51 25 21 28 2 13 354 7 351 348 336 325 319 317 315 311 308 308 307 305 303 302 299 300 300
195 194 196 190 188 184 188 190 192 191 189 191 193 187 183 170 167 166 161 153 151 150 147 135 127 116 116 113 107 95 85 72 53 41 28 52 34 40 27 11 7 360 8 4 358 348 342 330 319 314 311 306 305 308 308 309 310 309 306 303 301 301
201 200 194 192 183 188 192 192 197 197 196 195 191 176 189 171 164 166 165 163 164 161 144 129 117 115 111 108 97 86 74 67 48 23 35 40 27 23 19 5 356 2 4 357 350 344 334 323 311 314 309 314 318 321 317 315 312 311 311 312 309 309
205 198 187 186 191 193 193 196 198 196 193 196 193 191 183 158 176 170 173 176 170 149 137 126 118 113 107 99 96 91 83 86 37 6 37 7 31 12 9 358 357 10 351 347 338 339 328 312 306 301 309 316 317 317 313 310 308 309 309 309 310 309
196 180 188 196 197 197 196 199 199 195 196 196 191 194 173 176 174 182 180 178 160 146 133 124 121 111 107 107 104 112 122 152 214 181 203 296 27 2 5 351 0 357 341 340 331 328 323 307 296 307 315 316 316 313 308 305 305 305 304 302 303 305
197 196 198 199 200 200 199 197 194 188 200 198 195 188 165 181 183 183 186 166 151 147 135 127 122 117 116 119 129 144 155 196 201 202 193 216 23 353 355 343 358 333 335 324 326 318 313 301 302 310 312 312 310 310 306 303 301 301 298 298 298 301
202 201 203 200 200 200 203 191 184 197 201 196 193 152 173 186 185 179 170 160 156 151 137 133 133 130 130 136 142 154 183 189 199 193 188 96 318 298 326 331 332 320 326 322 319 318 308 294 302 307 310 310 311 309 307 300 297 297 297 297 298 299
204 205 202 201 201 201 196 186 193 201 191 177 155 170 181 177 181 172 167 161 160 145 140 138 141 141 141 140 150 172 187 183 196 190 186 124 273 302 298 305 311 321 322 319 314 307 303 296 297 307 310 311 309 308 307 300 301 297 296 296 294 295
199 194 197 204 200 189 168 190 195 153 146 158 167 176 169 177 165 166 164 164 151 148 147 143 142 143 144 149 164 179 184 188 188 176 142 128 322 316 315 321 316 308 308 305 305 303 298 289 304 310 311 309 308 308 311 306 302 294 290 290 289 290
195 194 204 185 161 177 180 189 169 160 169 155 167 167 169 164 165 168 161 165 165 161 155 150 152 144 148 162 172 177 192 187 181 132 117 14 296 267 287 292 293 298 303 302 301 301 296 293 308 311 309 308 309 311 310 301 295 295 294 290 291 288
193 194 155 161 173 169 189 163 155 151 143 158 164 160 163 163 173 179 177 174 168 166 156 149 147 156 163 168 172 181 197 180 179 155 154 340 296 295 288 283 287 291 291 294 296 298 295 294 303 307 308 308 310 312 299 294 293 293 294 290 291 289
154 146 160 159 178 182 152 150 151 150 155 164 160 161 171 176 191 181 176 178 170 158 153 152 154 163 169 167 179 186 186 167 161 182 166 273 287 286 276 289 288 273 274 284 292 289 294 290 302 307 308 308 308 307 303 297 286 271 279 292 289 287
160 155 142 150 174 176 154 153 151 152 170 170 174 174 176 196 189 179 183 174 153 148 149 151 158 160 164 174 181 179 179 181 182 188 198 224 242 265 276 284 288 277 266 258 274 297 299 292 297 304 304 306 306 308 302 297 284 282 294 295 293 283
118 130 155 184 194 156 158 157 161 172 173 181 165 179 196 202 194 176 148 138 144 142 148 156 159 162 163 172 173 178 181 167 164 196 206 243 262 274 288 282 278 287 281 271 274 277 286 288 286 294 301 303 305 307 304 298 294 295 294 286 273 279
172 177 191 196 162 157 160 158 157 176 179 166 175 199 208 185 146 153 153 138 141 148 152 157 160 162 171 170 172 169 169 174 188 182 215 256 274 283 292 290 279 285 282 270 267 265 275 270 282 286 297 303 305 306 306 298 287 279 276 272 264 261
204 211 205 167 164 165 163 164 170 179 168 170 199 211 163 144 155 149 149 153 154 155 156 157 159 154 163 168 156 169 182 196 176 201 210 235 267 291 292 290 288 284 285 282 266 256 269 276 283 284 291 299 303 305 306 302 293 295 294 295 299 299
202 209 206 181 171 171 173 170 177 177 175 190 212 167 145 150 151 151 151 152 156 162 162 162 159 169 168 172 178 164 178 191 186 217 196 210 254 266 282 279 283 293 295 295 278 260 261 264 268 283 286 294 304 306 307 304 303 304 303 298 285 278
201 208 203 180 180 178 177 177 183 183 182 213 166 139 141 147 151 150 153 160 163 158 165 171 175 175 180 177 168 162 170 196 197 209 216 210 218 248 271 273 280 290 299 305 300 280 278 270 274 275 284 297 307 310 309 309 307 306 301 296 298 301
201 204 202 195 187 190 188 192 185 184 202 204 145 160 158 157 154 157 165 169 169 172 173 171 180 180 184 185 164 165 178 207 184 210 238 201 226 234 259 269 267 276 287 295 295 306 305 294 285 286 296 309 310 312 311 311 310 310 310 307 292 292
220 199 208 211 199 198 198 201 190 187 213 155 162 159 161 154 158 168 175 174 175 179 169 178 193 194 195 185 185 187 187 184 194 196 208 203 227 219 238 261 258 263 270 278 286 293 297 288 281 286 289 289 301 302 302 305 310 310 310 311 312 312
208 214 210 217 209 202 207 203 211 211 151 163 162 161 160 164 168 172 172 182 181 174 179 183 189 190 193 195 187 192 189 189 186 197 214 216 220 230 230 250 250 262 260 264 280 287 284 280 284 283 281 304 297 298 290 290 287 307 320 324 322 322
210 217 213 223 214 201 203 206 213 203 170 164 162 160 160 169 177 179 184 183 180 180 181 187 181 182 190 195 179 186 204 211 192 197 213 199 204 201 237 221 242 244 252 264 275 273 272 285 280 274 302 286 268 274 302 301 304 330 331 330 327 323
211 219 216 227 213 190 200 210 211 191 183 177 168 164 169 178 181 177 175 177 172 187 178 183 186 188 190 198 205 218 205 193 198 218 237 228 193 211 230 248 245 245 241 243 254 273 279 258 268 293 296 300 311 314 311 317 332 330 336 334 330 343
214 220 221 231 201 189 200 208 204 194 190 175 174 172 176 174 168 174 186 180 184 180 177 182 188 189 189 194 210 233 278 246 238 227 218 251 233 235 239 234 226 228 234 243 248 226 247 277 282 301 309 311 310 310 314 321 325 328 334 331 349 11
219 224 230 230 197 199 200 203 197 189 190 179 179 180 178 164 171 183 184 180 194 185 184 179 180 184 180 189 185 203 254 318 293 271 262 262 264 264 265 265 266 268 265 267 279 282 281 288 299 305 305 308 308 311 320 324 327 336 338 337 3 4
221 221 227 225 201 204 197 201 195 190 186 181 180 181 172 175 174 186 192 185 179 177 182 174 172 163 171 180 184 186 202 265 310 309 282 256 271 279 278 274 275 274 276 276 272 273 311 300 295 299 304 306 308 317 324 325 336 344 340 342 11 350
219 222 227 220 204 203 199 200 200 179 177 175 175 173 174 180 181 175 164 169 170 174 174 172 171 173 169 183 184 190 189 207 228 269 308 315 310 299 278 275 271 273 277 282 285 290 291 295 300 301 304 305 312 327 326 331 352 345 342 354 6 313
224 224 221 214 206 203 195 205 195 180 175 164 165 170 175 174 181 171 166 172 175 172 180 179 176 176 180 179 180 182 187 206 202 217 243 299 320 334 344 257 309 320 324 317 306 299 298 297 301 303 303 307 324 333 332 353 359 342 9 5 338 324
221 221 212 201 193 193 198 210 184 163 158 163 163 164 165 168 170 159 160 161 161 179 180 179 172 177 177 174 187 190 196 201 199 199 211 224 249 270 293 301 296 296 301 298 302 301 295 298 302 304 305 313 342 341 351 11 12 354 329 349 229 283
207 204 171 166 175 187 198 199 152 156 158 162 164 166 168 168 169 168 161 170 169 171 170 175 184 183 186 190 199 192 195 182 187 207 208 220 230 245 257 275 284 292 292 292 286 283 290 300 303 303 305 325 357 357 22 7 341 331 318 314 294 269